Weather History for KJYG - July, 2013

Change the Weather History Date:

Saturday, July 27, 2013

  Actual Average Record
Temperature  
Mean Temperature 58 °F -  
Max Temperature 69 °F 82 °F 96 °F (1987)
Min Temperature 48 °F 59 °F 48 °F (2005)
Degree Days  
Heating Degree Days 6    
Growing Degree Days 8 (Base 50)    
Moisture  
Dew Point 45 °F    
Average Humidity 64    
Maximum Humidity 93    
Minimum Humidity 40    
Precipitation  
Precipitation 0.00 in - - ()
Sea Level Pressure  
Sea Level Pressure 30.07 in    
Wind  
Wind Speed 7 mph (WNW)    
Max Wind Speed 15 mph    
Max Gust Speed 23 mph    
Visibility 10 miles    
Events      
Averages and records for this station are not official NWS values.
T = Trace of Precipitation, MM = Missing Value Source: NWS Daily Summary

Daily Weather History Graph

Daily Weather History Graph

Search for Another Location

Airport or City:

Trip Planner

Search our weather history database for the weather conditions in past years. The results will help you decide how hot, cold, wet, or windy it might be!

Date:

Astronomy

Jul. 27, 2013 Rise Set
Actual Time 6:01 AM CDT 8:47 PM CDT
Civil Twilight 5:27 AM CDT 9:20 PM CDT
Nautical Twilight 4:45 AM CDT 10:03 PM CDT
Astronomical Twilight 3:56 AM CDT 10:51 PM CDT
Moon 11:20 PM CDT (7/27) 11:56 AM CDT (7/27)
Length of Visible Light 15h 53m
Length of Day
14h 46m
Waning Gibbous, 70% of the Moon is Illuminated
Jul 27
Waning Gibbous
Jul 29
Last Quarter
Aug 6
New
Aug 14
First Quarter
Aug 20
Full

Hourly Weather History & Observations

Time (CDT) Temp. Dew Point Humidity Pressure Visibility Wind Dir Wind Speed Gust Speed Precip Events Conditions
12:15 AM 55.4 °F 48.2 °F 77% 30.12 in 10.0 mi North 5.8 mph - N/A   Scattered Clouds
12:35 AM 53.6 °F 48.2 °F 82% 30.12 in 10.0 mi NNW 4.6 mph - N/A   Clear
12:55 AM 53.6 °F 48.2 °F 82% 30.12 in 10.0 mi NNW 4.6 mph - N/A   Scattered Clouds
1:15 AM 51.8 °F 48.2 °F 88% 30.12 in 10.0 mi NW 4.6 mph - N/A   Mostly Cloudy
1:35 AM 51.8 °F 48.2 °F 88% 30.12 in 10.0 mi NW 4.6 mph - N/A   Mostly Cloudy
1:55 AM 51.8 °F 46.4 °F 82% 30.12 in 10.0 mi NW 4.6 mph - N/A   Scattered Clouds
2:14 AM 50.0 °F 46.4 °F 87% 30.11 in 10.0 mi NW 3.5 mph - N/A   Scattered Clouds
2:35 AM 48.2 °F 46.4 °F 93% 30.11 in 10.0 mi WNW 4.6 mph - N/A   Scattered Clouds
2:53 AM 48.2 °F 44.6 °F 87% 30.11 in 10.0 mi WNW 5.8 mph - N/A   Scattered Clouds
3:15 AM 48.2 °F 46.4 °F 93% 30.11 in 10.0 mi West 3.5 mph - N/A   Clear
3:35 AM 48.2 °F 44.6 °F 87% 30.11 in 10.0 mi West 3.5 mph - N/A   Clear
3:55 AM 48.2 °F 44.6 °F 87% 30.11 in 10.0 mi WNW 6.9 mph - N/A   Scattered Clouds
4:15 AM 48.2 °F 44.6 °F 87% 30.11 in 10.0 mi WNW 4.6 mph - N/A   Overcast
4:35 AM 48.2 °F 44.6 °F 87% 30.11 in 10.0 mi WNW 3.5 mph - N/A   Scattered Clouds
4:55 AM 48.2 °F 46.4 °F 93% 30.12 in 10.0 mi West 5.8 mph - N/A   Clear
5:15 AM 50.0 °F 46.4 °F 87% 30.12 in 10.0 mi West 4.6 mph - N/A   Mostly Cloudy
5:35 AM 48.2 °F 46.4 °F 93% 30.12 in 10.0 mi WNW 3.5 mph - N/A   Overcast
5:55 AM 50.0 °F 46.4 °F 87% 30.12 in 10.0 mi WNW 3.5 mph - N/A   Overcast
6:14 AM 48.2 °F 46.4 °F 93% 30.12 in 10.0 mi NW 3.5 mph - N/A   Overcast
6:35 AM 50.0 °F 46.4 °F 87% 30.13 in 10.0 mi WNW 4.6 mph - N/A   Overcast
6:55 AM 50.0 °F 46.4 °F 87% 30.12 in 10.0 mi WNW 4.6 mph - N/A   Overcast
7:14 AM 51.8 °F 48.2 °F 88% 30.12 in 10.0 mi WNW 4.6 mph - N/A   Mostly Cloudy
7:35 AM 53.6 °F 48.2 °F 82% 30.12 in 10.0 mi NW 5.8 mph - N/A   Scattered Clouds
7:55 AM 53.6 °F 46.4 °F 77% 30.12 in 10.0 mi NW 8.1 mph - N/A   Clear
8:15 AM 55.4 °F 46.4 °F 72% 30.12 in 10.0 mi WNW 8.1 mph - N/A   Clear
8:35 AM 55.4 °F 46.4 °F 72% 30.12 in 10.0 mi NNW 10.4 mph - N/A   Scattered Clouds
8:55 AM 55.4 °F 46.4 °F 72% 30.13 in 10.0 mi NNW 10.4 mph - N/A   Mostly Cloudy
9:15 AM 57.2 °F 46.4 °F 67% 30.12 in 10.0 mi NW 9.2 mph - N/A   Overcast
9:35 AM 57.2 °F 46.4 °F 67% 30.12 in 10.0 mi NW 12.7 mph - N/A   Overcast
9:55 AM 59.0 °F 46.4 °F 63% 30.11 in 10.0 mi WNW 11.5 mph 17.3 mph N/A   Scattered Clouds
10:15 AM 60.8 °F 44.6 °F 55% 30.11 in 10.0 mi NNW 11.5 mph - N/A   Clear
10:35 AM 60.8 °F 44.6 °F 55% 30.10 in 10.0 mi WNW 11.5 mph 19.6 mph N/A   Scattered Clouds
10:54 AM 62.6 °F 42.8 °F 48% 30.10 in 10.0 mi WNW 11.5 mph 19.6 mph N/A   Scattered Clouds
11:15 AM 62.6 °F 42.8 °F 48% 30.09 in 10.0 mi NW 13.8 mph 20.7 mph N/A   Scattered Clouds
11:35 AM 62.6 °F 42.8 °F 48% 30.09 in 10.0 mi NW 9.2 mph 17.3 mph N/A   Scattered Clouds
11:55 AM 64.4 °F 44.6 °F 49% 30.09 in 10.0 mi WNW 11.5 mph 17.3 mph N/A   Scattered Clouds
12:15 PM 64.4 °F 42.8 °F 45% 30.09 in 10.0 mi NNW 12.7 mph 18.4 mph N/A   Scattered Clouds
12:35 PM 64.4 °F 44.6 °F 49% 30.08 in 10.0 mi NW 11.5 mph 16.1 mph N/A   Mostly Cloudy
12:55 PM 64.4 °F 42.8 °F 45% 30.07 in 10.0 mi NW 12.7 mph 20.7 mph N/A   Mostly Cloudy
1:14 PM 64.4 °F 42.8 °F 45% 30.07 in 10.0 mi NW 15.0 mph 19.6 mph N/A   Mostly Cloudy
1:35 PM 66.2 °F 42.8 °F 43% 30.06 in 10.0 mi NNW 12.7 mph 20.7 mph N/A   Mostly Cloudy
1:55 PM 64.4 °F 42.8 °F 45% 30.06 in 10.0 mi NW 10.4 mph - N/A   Overcast
2:15 PM 64.4 °F 44.6 °F 49% 30.05 in 10.0 mi West 12.7 mph 16.1 mph N/A   Mostly Cloudy
2:35 PM 66.2 °F 44.6 °F 46% 30.05 in 10.0 mi WNW 11.5 mph 17.3 mph N/A   Mostly Cloudy
2:55 PM 68.0 °F 44.6 °F 43% 30.04 in 10.0 mi WNW 11.5 mph 20.7 mph N/A   Scattered Clouds
3:15 PM 68.0 °F 46.4 °F 46% 30.04 in 10.0 mi WNW 10.4 mph 20.7 mph N/A   Scattered Clouds
3:35 PM 69.8 °F 46.4 °F 43% 30.02 in 10.0 mi West 15.0 mph 19.6 mph N/A   Mostly Cloudy
3:54 PM 68.0 °F 44.6 °F 43% 30.02 in 10.0 mi WNW 12.7 mph 20.7 mph N/A   Mostly Cloudy
4:15 PM 69.8 °F 46.4 °F 43% 30.02 in 10.0 mi NW 12.7 mph 18.4 mph N/A   Mostly Cloudy
4:35 PM 66.2 °F 44.6 °F 46% 30.02 in 10.0 mi WNW 10.4 mph 19.6 mph N/A   Mostly Cloudy
4:55 PM 68.0 °F 44.6 °F 43% 30.01 in 10.0 mi WNW 15.0 mph 23.0 mph N/A   Mostly Cloudy
5:15 PM 66.2 °F 44.6 °F 46% 30.01 in 10.0 mi WNW 10.4 mph 19.6 mph N/A   Scattered Clouds
5:35 PM 66.2 °F 44.6 °F 46% 30.00 in 10.0 mi NW 9.2 mph 19.6 mph N/A   Mostly Cloudy
5:55 PM 68.0 °F 42.8 °F 40% 30.00 in 10.0 mi WNW 11.5 mph 18.4 mph N/A   Mostly Cloudy
6:15 PM 66.2 °F 42.8 °F 43% 30.00 in 10.0 mi NW 11.5 mph 18.4 mph N/A   Mostly Cloudy
6:35 PM 66.2 °F 42.8 °F 43% 29.99 in 10.0 mi WNW 12.7 mph 17.3 mph N/A   Overcast
6:55 PM 66.2 °F 42.8 °F 43% 29.99 in 10.0 mi WNW 15.0 mph - N/A   Overcast
7:15 PM 66.2 °F 44.6 °F 46% 29.99 in 10.0 mi WNW 9.2 mph - N/A   Overcast
7:35 PM 64.4 °F 44.6 °F 49% 29.99 in 10.0 mi WNW 4.6 mph - N/A   Overcast
7:55 PM 64.4 °F 46.4 °F 52% 29.99 in 10.0 mi WNW 5.8 mph - N/A   Overcast
8:15 PM 64.4 °F 46.4 °F 52% 29.99 in 10.0 mi WNW 6.9 mph - N/A   Overcast
8:35 PM 64.4 °F 46.4 °F 52% 29.99 in 10.0 mi WNW 5.8 mph - N/A   Overcast
8:55 PM 60.8 °F 46.4 °F 59% 29.99 in 10.0 mi WNW 5.8 mph - N/A   Mostly Cloudy
9:15 PM 60.8 °F 44.6 °F 55% 29.99 in 10.0 mi West 8.1 mph - N/A   Mostly Cloudy
9:35 PM 60.8 °F 46.4 °F 59% 29.99 in 10.0 mi West 6.9 mph - N/A   Overcast
9:55 PM 60.8 °F 44.6 °F 55% 29.99 in 10.0 mi West 8.1 mph - N/A   Overcast
10:15 PM 60.8 °F 44.6 °F 55% 29.99 in 10.0 mi West 8.1 mph - N/A   Mostly Cloudy
10:35 PM 60.8 °F 46.4 °F 59% 30.00 in 10.0 mi West 8.1 mph - N/A   Overcast
10:55 PM 59.0 °F 46.4 °F 63% 30.01 in 10.0 mi NW 9.2 mph 17.3 mph N/A   Mostly Cloudy
11:15 PM 57.2 °F 46.4 °F 67% 30.01 in 10.0 mi NW 5.8 mph - N/A   Scattered Clouds
11:35 PM 55.4 °F 46.4 °F 72% 30.02 in 10.0 mi NW 4.6 mph - N/A   Mostly Cloudy
11:55 PM 55.4 °F 46.4 °F 72% 30.02 in 10.0 mi NW 6.9 mph - N/A   Scattered Clouds